Weather in Duvan

Russia / Republic of Bashkortostan     55°41′57″N   57°54′11″E
temp.,
°C
wind,
m/s
gust,
m/s
humid.,
%
clouds,
%
prec.,
mm/h
press.,
hPa
HPBL,
m
25 february, thu
thu2523:00−23n6148975 0.0 1026453
02:00−26n49920 0.0 1028195
05:00−28n23950 0.0 103036
08:00−30wnw11930 0.0 103219
11:00−23sw12850 0.0 1032192
14:00−18sw12770 0.0 1030494
17:00−17sw138531 0.0 1030218
20:00−22wsw239676 0.0 103024
26 february, fri
fri2623:00−25sw229237 0.0 103120
02:00−27ssw23930 0.0 102928
05:00−27s23924 0.0 102933
08:00−28sse228940 0.0 102725
11:00−22sse248334 0.0 1026163
14:00−17sse347820 0.0 1023325
17:00−16se238948 0.0 1022156
20:00−19sse128489 0.0 102120
27 february, sat
sat2723:00−18sse228792 0.0 101920
02:00−19se239593 0.0 101624
05:00−20se359372 0.0 1013105
08:00−18se4895100 0.1 1008246
11:00−16se3796100 1.8 1005285
14:00−12se4894100 1.0 1003380
17:00−10se4794100 1.3 1002385
20:00−11ese3796100 0.5 1001255
28 february, sun
sun2823:00−11ese249699 0.7 1001120
02:00−10se2297100 0.5 100091
05:00−9ese1297100 1.1 100038
08:00−9e119798 0.4 100021
11:00−6ene129597 1.0 1000142
14:00−3ene229599 0.6 1001239
17:00−2ene3498100 1.2 1003264
20:00−7ene3796100 0.8 1005211
1 march, mon
mon123:00−11ne3796100 1.2 1008202
02:00−14nne359699 0.1 1010188
05:00−15nne369799 0.4 1012229
08:00−16nne3697100 0.3 1013238
11:00−15nne3595100 0.4 1015288
14:00−13nne3491100 0.2 1015384
17:00−12nne3492100 0.4 1016393
20:00−14n2497100 0.2 101795